,,,PA_Meas_PMT16A,,PR_Meas_QMR101_102,,RH_Meas_QMH101,,SR_Meas_QMS101,,TA_Meas_QMH101,,GenWind,,GenWind,
date,time,status,PA,status,PR,status,RH,status,SR,status,TA,status,DirAvg,status,SpdAvg,
2011-10-08, 00:00:04,VALID,1010.183,VALID,0.0,VALID,104.0,VALID,0.0,VALID,24.396,VALID,44.0,VALID,0.196,
2011-10-08, 00:01:04,VALID,1010.195,VALID,0.0,VALID,104.0,VALID,0.0,VALID,24.415,VALID,44.0,VALID,0.236,
2011-10-08, 00:02:04,VALID,1010.15,VALID,0.0,VALID,104.0,VALID,0.0,VALID,24.355,VALID,44.0,VALID,0.221,
2011-10-08, 00:03:04,VALID,1010.143,VALID,0.0,VALID,104.0,VALID,0.0,VALID,24.357,VALID,44.0,VALID,0.21,
2011-10-08, 00:04:04,VALID,1010.137,VALID,0.0,VALID,104.0,VALID,0.0,VALID,24.318,VALID,44.0,VALID,0.194,
2011-10-08, 00:05:04,VALID,1010.112,VALID,0.0,VALID,104.0,VALID,0.0,VALID,24.298,VALID,44.0,VALID,0.334,
2011-10-08, 00:06:04,VALID,1010.093,VALID,0.0,VALID,104.0,VALID,0.0,VALID,24.257,VALID,44.0,VALID,0.354,
2011-10-08, 00:07:04,VALID,1010.078,VALID,0.0,VALID,104.0,VALID,0.0,VALID,24.298,VALID,44.0,VALID,0.374,
2011-10-08, 00:08:04,VALID,1010.07,VALID,0.0,VALID,104.0,VALID,0.0,VALID,24.279,VALID,44.0,VALID,0.274,
2011-10-08, 00:09:04,VALID,1010.071,VALID,0.0,VALID,104.0,VALID,0.0,VALID,24.259,VALID,44.0,VALID,0.049,
2011-10-08, 00:10:04,VALID,1010.053,VALID,0.0,VALID,104.0,VALID,0.0,VALID,24.24,VALID,44.0,VALID,0.023,
2011-10-08, 00:11:04,VALID,1010.033,VALID,0.0,VALID,104.0,VALID,0.0,VALID,24.24,VALID,43.0,VALID,0.126,
2011-10-08, 00:12:04,VALID,1010.03,VALID,0.0,VALID,104.0,VALID,0.0,VALID,24.24,VALID,44.0,VALID,0.225,
2011-10-08, 00:13:04,VALID,1010.017,VALID,0.0,VALID,104.0,VALID,0.0,VALID,24.24,VALID,44.0,VALID,0.0,
2011-10-08, 00:14:04,VALID,1009.969,VALID,0.0,VALID,104.0,VALID,0.0,VALID,24.201,VALID,44.0,VALID,0.0,
2011-10-08, 00:15:04,VALID,1009.944,VALID,0.0,VALID,104.0,VALID,0.0,VALID,24.222,VALID,44.0,VALID,0.0,
2011-10-08, 00:16:04,VALID,1009.892,VALID,0.0,VALID,104.0,VALID,0.0,VALID,24.201,VALID,44.0,VALID,0.0,
2011-10-08, 00:17:04,VALID,1009.882,VALID,0.0,VALID,104.0,VALID,0.0,VALID,24.201,VALID,44.0,VALID,0.0,
2011-10-08, 00:18:04,VALID,1009.881,VALID,0.0,VALID,104.0,VALID,0.0,VALID,24.201,VALID,44.0,VALID,0.0,
2011-10-08, 00:19:04,VALID,1009.872,VALID,0.0,VALID,104.0,VALID,0.0,VALID,24.201,VALID,44.0,VALID,0.0,
2011-10-08, 00:20:04,VALID,1009.873,VALID,0.0,VALID,104.0,VALID,0.0,VALID,24.201,VALID,44.0,VALID,0.0,
2011-10-08, 00:21:04,VALID,1009.894,VALID,0.0,VALID,104.0,VALID,0.112,VALID,24.199,VALID,44.0,VALID,0.0,
2011-10-08, 00:22:04,VALID,1009.909,VALID,0.0,VALID,104.0,VALID,0.112,VALID,24.199,VALID,44.0,VALID,0.0,
2011-10-08, 00:23:04,VALID,1009.912,VALID,0.0,VALID,104.0,VALID,0.112,VALID,24.158,VALID,44.0,VALID,0.0,
2011-10-08, 00:24:04,VALID,1009.913,VALID,0.0,VALID,104.0,VALID,0.0,VALID,24.181,VALID,44.0,VALID,0.166,
2011-10-08, 00:25:04,VALID,1009.933,VALID,0.0,VALID,104.0,VALID,0.0,VALID,24.162,VALID,44.0,VALID,0.041,
2011-10-08, 00:26:04,VALID,1009.93,VALID,0.0,VALID,104.0,VALID,0.0,VALID,24.162,VALID,44.0,VALID,0.0,
2011-10-08, 00:27:04,VALID,1009.918,VALID,0.0,VALID,104.0,VALID,0.0,VALID,24.142,VALID,44.0,VALID,0.0,
2011-10-08, 00:28:04,VALID,1009.92,VALID,0.0,VALID,104.0,VALID,0.0,VALID,24.123,VALID,44.0,VALID,0.0,
2011-10-08, 00:29:04,VALID,1009.87,VALID,0.0,VALID,104.0,VALID,0.0,VALID,24.142,VALID,44.0,VALID,0.0,
2011-10-08, 00:30:04,VALID,1009.858,VALID,0.0,VALID,104.0,VALID,0.0,VALID,24.121,VALID,44.0,VALID,0.0,
2011-10-08, 00:31:04,VALID,1009.816,VALID,0.0,VALID,104.0,VALID,0.0,VALID,24.142,VALID,44.0,VALID,0.0,
2011-10-08, 00:32:04,VALID,1009.808,VALID,0.0,VALID,104.0,VALID,0.0,VALID,24.123,VALID,44.0,VALID,0.0,
2011-10-08, 00:33:04,VALID,1009.807,VALID,0.0,VALID,104.0,VALID,0.0,VALID,24.101,VALID,44.0,VALID,0.0,
2011-10-08, 00:34:04,VALID,1009.818,VALID,0.0,VALID,104.0,VALID,0.0,VALID,24.123,VALID,44.0,VALID,0.154,
2011-10-08, 00:35:04,VALID,1009.79,VALID,0.0,VALID,104.0,VALID,0.0,VALID,24.121,VALID,44.0,VALID,0.04,
2011-10-08, 00:36:04,VALID,1009.808,VALID,0.0,VALID,104.0,VALID,0.112,VALID,24.121,VALID,44.0,VALID,0.0,
2011-10-08, 00:37:04,VALID,1009.79,VALID,0.0,VALID,104.0,VALID,0.112,VALID,24.121,VALID,44.0,VALID,0.0,
2011-10-08, 00:38:04,VALID,1009.769,VALID,0.0,VALID,104.0,VALID,0.112,VALID,24.101,VALID,44.0,VALID,0.0,
2011-10-08, 00:39:04,VALID,1009.778,VALID,0.0,VALID,104.0,VALID,0.112,VALID,24.14,VALID,44.0,VALID,0.0,
2011-10-08, 00:40:04,VALID,1009.752,VALID,0.0,VALID,104.0,VALID,0.112,VALID,24.139,VALID,44.0,VALID,0.0,
2011-10-08, 00:41:04,VALID,1009.72,VALID,0.0,VALID,104.0,VALID,0.112,VALID,24.16,VALID,44.0,VALID,0.0,
2011-10-08, 00:42:04,VALID,1009.687,VALID,0.0,VALID,104.0,VALID,0.112,VALID,24.179,VALID,44.0,VALID,0.0,
2011-10-08, 00:43:04,VALID,1009.663,VALID,0.0,VALID,104.0,VALID,0.112,VALID,24.197,VALID,44.0,VALID,0.0,
2011-10-08, 00:44:04,VALID,1009.657,VALID,0.0,VALID,104.0,VALID,0.112,VALID,24.199,VALID,44.0,VALID,0.0,
2011-10-08, 00:45:04,VALID,1009.625,VALID,0.0,VALID,104.0,VALID,0.112,VALID,24.218,VALID,44.0,VALID,0.0,
2011-10-08, 00:46:04,VALID,1009.599,VALID,0.0,VALID,104.0,VALID,0.112,VALID,24.199,VALID,44.0,VALID,0.0,
2011-10-08, 00:47:04,VALID,1009.614,VALID,0.0,VALID,104.0,VALID,0.112,VALID,24.179,VALID,44.0,VALID,0.0,
2011-10-08, 00:48:04,VALID,1009.577,VALID,0.0,VALID,104.0,VALID,0.112,VALID,24.179,VALID,44.0,VALID,0.0,
2011-10-08, 00:49:04,VALID,1009.602,VALID,0.0,VALID,104.0,VALID,0.112,VALID,24.179,VALID,44.0,VALID,0.0,
2011-10-08, 00:50:04,VALID,1009.593,VALID,0.0,VALID,104.0,VALID,0.112,VALID,24.199,VALID,44.0,VALID,0.0,
2011-10-08, 00:51:04,VALID,1009.601,VALID,0.0,VALID,104.0,VALID,0.0,VALID,24.201,VALID,44.0,VALID,0.0,
2011-10-08, 00:52:04,VALID,1009.602,VALID,0.0,VALID,104.0,VALID,0.0,VALID,24.181,VALID,44.0,VALID,0.0,
2011-10-08, 00:53:04,VALID,1009.561,VALID,0.0,VALID,104.0,VALID,0.0,VALID,24.162,VALID,44.0,VALID,0.0,
2011-10-08, 00:54:04,VALID,1009.562,VALID,0.0,VALID,104.0,VALID,0.0,VALID,24.123,VALID,44.0,VALID,0.106,
2011-10-08, 00:55:04,VALID,1009.547,VALID,0.0,VALID,104.0,VALID,0.112,VALID,24.123,VALID,44.0,VALID,0.191,
2011-10-08, 00:56:04,VALID,1009.537,VALID,0.0,VALID,104.0,VALID,0.0,VALID,24.103,VALID,44.0,VALID,0.114,
2011-10-08, 00:57:04,VALID,1009.524,VALID,0.0,VALID,104.0,VALID,0.0,VALID,24.103,VALID,44.0,VALID,0.133,
2011-10-08, 00:58:04,VALID,1009.512,VALID,0.0,VALID,104.0,VALID,0.0,VALID,24.103,VALID,44.0,VALID,0.0,
2011-10-08, 00:59:04,VALID,1009.481,VALID,0.0,VALID,104.0,VALID,0.0,VALID,24.064,VALID,44.0,VALID,0.0,
2011-10-08, 01:00:04,VALID,1009.503,VALID,0.0,VALID,104.0,VALID,0.0,VALID,24.064,VALID,44.0,VALID,0.0,
2011-10-08, 01:01:04,VALID,1009.485,VALID,0.0,VALID,104.0,VALID,0.0,VALID,24.064,VALID,44.0,VALID,0.0,
2011-10-08, 01:02:04,VALID,1009.493,VALID,0.0,VALID,104.0,VALID,0.0,VALID,24.023,VALID,44.0,VALID,0.0,
2011-10-08, 01:03:04,VALID,1009.474,VALID,0.0,VALID,104.0,VALID,0.0,VALID,24.006,VALID,44.0,VALID,0.0,
2011-10-08, 01:04:04,VALID,1009.458,VALID,0.0,VALID,104.0,VALID,0.0,VALID,24.006,VALID,44.0,VALID,0.0,
2011-10-08, 01:05:04,VALID,1009.496,VALID,0.0,VALID,104.0,VALID,0.0,VALID,23.986,VALID,44.0,VALID,0.0,
2011-10-08, 01:06:04,VALID,1009.489,VALID,0.0,VALID,104.0,VALID,0.0,VALID,23.986,VALID,44.0,VALID,0.0,
2011-10-08, 01:07:04,VALID,1009.479,VALID,0.0,VALID,104.0,VALID,0.0,VALID,23.986,VALID,44.0,VALID,0.0,
2011-10-08, 01:08:04,VALID,1009.487,VALID,0.0,VALID,104.0,VALID,0.0,VALID,23.986,VALID,44.0,VALID,0.0,
2011-10-08, 01:09:04,VALID,1009.501,VALID,0.0,VALID,104.0,VALID,0.0,VALID,24.006,VALID,44.0,VALID,0.0,
2011-10-08, 01:10:04,VALID,1009.509,VALID,0.0,VALID,104.0,VALID,0.0,VALID,23.984,VALID,44.0,VALID,0.0,
2011-10-08, 01:11:04,VALID,1009.533,VALID,0.0,VALID,104.0,VALID,0.0,VALID,24.006,VALID,44.0,VALID,0.0,
2011-10-08, 01:12:04,VALID,1009.558,VALID,0.0,VALID,104.0,VALID,0.0,VALID,24.006,VALID,44.0,VALID,0.0,
2011-10-08, 01:13:04,VALID,1009.581,VALID,0.0,VALID,104.0,VALID,0.0,VALID,24.006,VALID,44.0,VALID,0.0,
2011-10-08, 01:14:04,VALID,1009.591,VALID,0.0,VALID,104.0,VALID,0.0,VALID,24.006,VALID,44.0,VALID,0.0,
2011-10-08, 01:15:04,VALID,1009.616,VALID,0.0,VALID,104.0,VALID,0.0,VALID,24.025,VALID,44.0,VALID,0.0,
2011-10-08, 01:16:04,VALID,1009.61,VALID,0.0,VALID,104.0,VALID,0.0,VALID,24.025,VALID,44.0,VALID,0.0,
2011-10-08, 01:17:04,VALID,1009.582,VALID,0.0,VALID,104.0,VALID,0.0,VALID,24.025,VALID,44.0,VALID,0.022,
2011-10-08, 01:18:04,VALID,1009.591,VALID,0.0,VALID,104.0,VALID,0.0,VALID,24.045,VALID,44.0,VALID,0.0,
2011-10-08, 01:19:04,VALID,1009.596,VALID,0.0,VALID,104.0,VALID,0.0,VALID,24.004,VALID,44.0,VALID,0.125,
2011-10-08, 01:20:04,VALID,1009.588,VALID,0.0,VALID,104.0,VALID,0.0,VALID,24.006,VALID,44.0,VALID,0.116,
2011-10-08, 01:21:04,VALID,1009.572,VALID,0.0,VALID,104.0,VALID,0.0,VALID,24.008,VALID,44.0,VALID,0.18,
2011-10-08, 01:22:04,VALID,1009.601,VALID,0.0,VALID,104.0,VALID,0.0,VALID,23.986,VALID,44.0,VALID,0.0,
2011-10-08, 01:23:04,VALID,1009.588,VALID,0.0,VALID,104.0,VALID,0.0,VALID,24.025,VALID,44.0,VALID,0.0,
2011-10-08, 01:24:04,VALID,1009.617,VALID,0.0,VALID,104.0,VALID,0.0,VALID,24.006,VALID,44.0,VALID,0.0,
2011-10-08, 01:25:04,VALID,1009.598,VALID,0.0,VALID,104.0,VALID,0.0,VALID,24.025,VALID,44.0,VALID,0.0,
2011-10-08, 01:26:04,VALID,1009.596,VALID,0.0,VALID,104.0,VALID,0.0,VALID,24.006,VALID,44.0,VALID,0.085,
2011-10-08, 01:27:04,VALID,1009.607,VALID,0.0,VALID,104.0,VALID,0.0,VALID,24.006,VALID,44.0,VALID,0.145,
2011-10-08, 01:28:04,VALID,1009.603,VALID,0.0,VALID,104.0,VALID,0.0,VALID,24.006,VALID,44.0,VALID,0.107,
2011-10-08, 01:29:04,VALID,1009.611,VALID,0.0,VALID,104.0,VALID,0.0,VALID,24.025,VALID,44.0,VALID,0.151,
2011-10-08, 01:30:04,VALID,1009.574,VALID,0.0,VALID,104.0,VALID,0.0,VALID,24.064,VALID,44.0,VALID,0.246,
2011-10-08, 01:31:04,VALID,1009.572,VALID,0.0,VALID,104.0,VALID,0.0,VALID,24.084,VALID,44.0,VALID,0.218,
2011-10-08, 01:32:04,VALID,1009.589,VALID,0.0,VALID,104.0,VALID,0.0,VALID,24.084,VALID,44.0,VALID,0.136,
2011-10-08, 01:33:04,VALID,1009.579,VALID,0.0,VALID,104.0,VALID,0.0,VALID,24.082,VALID,44.0,VALID,0.116,
2011-10-08, 01:34:04,VALID,1009.581,VALID,0.0,VALID,104.0,VALID,0.0,VALID,24.103,VALID,44.0,VALID,0.073,
2011-10-08, 01:35:04,VALID,1009.551,VALID,0.0,VALID,104.0,VALID,0.0,VALID,24.125,VALID,44.0,VALID,0.0,
2011-10-08, 01:36:04,VALID,1009.53,VALID,0.0,VALID,104.0,VALID,0.0,VALID,24.103,VALID,44.0,VALID,0.0,
2011-10-08, 01:37:04,VALID,1009.535,VALID,0.0,VALID,104.0,VALID,0.0,VALID,24.084,VALID,44.0,VALID,0.199,
2011-10-08, 01:38:04,VALID,1009.526,VALID,0.0,VALID,104.0,VALID,0.0,VALID,24.084,VALID,44.0,VALID,0.204,
2011-10-08, 01:39:04,VALID,1009.517,VALID,0.0,VALID,104.0,VALID,0.0,VALID,24.105,VALID,44.0,VALID,0.222,
2011-10-08, 01:40:04,VALID,1009.558,VALID,0.0,VALID,104.0,VALID,0.0,VALID,24.103,VALID,44.0,VALID,0.271,
2011-10-08, 01:41:04,VALID,1009.561,VALID,0.0,VALID,104.0,VALID,0.0,VALID,24.103,VALID,44.0,VALID,0.024,
2011-10-08, 01:42:04,VALID,1009.556,VALID,0.0,VALID,104.0,VALID,0.0,VALID,24.103,VALID,44.0,VALID,0.098,
2011-10-08, 01:43:04,VALID,1009.56,VALID,0.0,VALID,104.0,VALID,0.0,VALID,24.123,VALID,44.0,VALID,0.0,
2011-10-08, 01:44:04,VALID,1009.577,VALID,0.0,VALID,104.0,VALID,0.0,VALID,24.123,VALID,44.0,VALID,0.066,
2011-10-08, 01:45:04,VALID,1009.556,VALID,0.0,VALID,104.0,VALID,0.0,VALID,24.142,VALID,44.0,VALID,0.307,
2011-10-08, 01:46:04,VALID,1009.558,VALID,0.0,VALID,104.0,VALID,0.0,VALID,24.142,VALID,44.0,VALID,0.249,
2011-10-08, 01:47:04,VALID,1009.542,VALID,0.0,VALID,104.0,VALID,0.0,VALID,24.162,VALID,44.0,VALID,0.292,
2011-10-08, 01:48:04,VALID,1009.52,VALID,0.0,VALID,104.0,VALID,0.0,VALID,24.142,VALID,44.0,VALID,0.242,
2011-10-08, 01:49:04,VALID,1009.548,VALID,0.0,VALID,104.0,VALID,0.0,VALID,24.142,VALID,44.0,VALID,0.349,
2011-10-08, 01:50:04,VALID,1009.523,VALID,0.0,VALID,104.0,VALID,0.0,VALID,24.162,VALID,44.0,VALID,0.454,
2011-10-08, 01:51:04,VALID,1009.502,VALID,0.0,VALID,104.0,VALID,0.0,VALID,24.181,VALID,44.0,VALID,0.312,
2011-10-08, 01:52:04,VALID,1009.504,VALID,0.0,VALID,104.0,VALID,0.0,VALID,24.181,VALID,44.0,VALID,0.145,
2011-10-08, 01:53:04,VALID,1009.505,VALID,0.0,VALID,104.0,VALID,0.0,VALID,24.201,VALID,44.0,VALID,0.0,
2011-10-08, 01:54:04,VALID,1009.472,VALID,0.0,VALID,104.0,VALID,0.0,VALID,24.22,VALID,44.0,VALID,0.0,
2011-10-08, 01:55:04,VALID,1009.453,VALID,0.0,VALID,104.0,VALID,0.0,VALID,24.22,VALID,43.0,VALID,0.001,
2011-10-08, 01:56:04,VALID,1009.429,VALID,0.0,VALID,104.0,VALID,0.0,VALID,24.24,VALID,44.0,VALID,0.283,
2011-10-08, 01:57:04,VALID,1009.413,VALID,0.0,VALID,104.0,VALID,0.112,VALID,24.259,VALID,60.0,VALID,0.287,
2011-10-08, 01:58:04,VALID,1009.406,VALID,0.0,VALID,104.0,VALID,0.0,VALID,24.259,VALID,60.0,VALID,0.305,
2011-10-08, 01:59:04,VALID,1009.399,VALID,0.0,VALID,104.0,VALID,0.0,VALID,24.279,VALID,132.0,VALID,0.665,
2011-10-08, 02:00:04,VALID,1009.388,VALID,0.0,VALID,104.0,VALID,0.0,VALID,24.298,VALID,177.0,VALID,0.639,
2011-10-08, 02:01:04,VALID,1009.39,VALID,0.0,VALID,104.0,VALID,0.0,VALID,24.318,VALID,177.0,VALID,0.466,
2011-10-08, 02:02:04,VALID,1009.403,VALID,0.0,VALID,104.0,VALID,0.0,VALID,24.337,VALID,177.0,VALID,0.346,
2011-10-08, 02:03:04,VALID,1009.419,VALID,0.0,VALID,104.0,VALID,0.0,VALID,24.337,VALID,177.0,VALID,0.334,
2011-10-08, 02:04:04,VALID,1009.419,VALID,0.0,VALID,104.0,VALID,0.0,VALID,24.337,VALID,177.0,VALID,0.095,
2011-10-08, 02:05:04,VALID,1009.424,VALID,0.0,VALID,104.0,VALID,0.0,VALID,24.337,VALID,177.0,VALID,0.171,
2011-10-08, 02:06:04,VALID,1009.442,VALID,0.0,VALID,104.0,VALID,0.0,VALID,24.358,VALID,177.0,VALID,0.252,
2011-10-08, 02:07:04,VALID,1009.42,VALID,0.0,VALID,104.0,VALID,0.0,VALID,24.378,VALID,177.0,VALID,0.04,
2011-10-08, 02:08:04,VALID,1009.455,VALID,0.0,VALID,104.0,VALID,0.0,VALID,24.376,VALID,177.0,VALID,0.092,
2011-10-08, 02:09:05,VALID,1009.452,VALID,0.0,VALID,104.0,VALID,0.0,VALID,24.376,VALID,177.0,VALID,0.323,
2011-10-08, 02:10:05,VALID,1009.424,VALID,0.0,VALID,104.0,VALID,0.0,VALID,24.415,VALID,177.0,VALID,0.36,
2011-10-08, 02:11:05,VALID,1009.446,VALID,0.0,VALID,104.0,VALID,0.0,VALID,24.435,VALID,177.0,VALID,0.078,
2011-10-08, 02:12:05,VALID,1009.428,VALID,0.0,VALID,104.0,VALID,0.0,VALID,24.435,VALID,177.0,VALID,0.068,
2011-10-08, 02:13:05,VALID,1009.426,VALID,0.0,VALID,104.0,VALID,0.0,VALID,24.435,VALID,177.0,VALID,0.26,
2011-10-08, 02:14:05,VALID,1009.413,VALID,0.0,VALID,104.0,VALID,0.0,VALID,24.435,VALID,177.0,VALID,0.28,
2011-10-08, 02:15:05,VALID,1009.427,VALID,0.0,VALID,104.0,VALID,0.0,VALID,24.435,VALID,177.0,VALID,0.055,
2011-10-08, 02:16:05,VALID,1009.419,VALID,0.0,VALID,104.0,VALID,0.0,VALID,24.435,VALID,177.0,VALID,0.01,
2011-10-08, 02:17:05,VALID,1009.379,VALID,0.0,VALID,104.0,VALID,0.0,VALID,24.435,VALID,177.0,VALID,0.0,
2011-10-08, 02:18:05,VALID,1009.359,VALID,0.0,VALID,104.0,VALID,0.0,VALID,24.415,VALID,177.0,VALID,0.0,
2011-10-08, 02:19:05,VALID,1009.351,VALID,0.0,VALID,104.0,VALID,0.0,VALID,24.396,VALID,177.0,VALID,0.0,
2011-10-08, 02:20:05,VALID,1009.32,VALID,0.0,VALID,104.0,VALID,0.0,VALID,24.376,VALID,177.0,VALID,0.248,
2011-10-08, 02:21:05,VALID,1009.298,VALID,0.0,VALID,104.0,VALID,0.112,VALID,24.355,VALID,177.0,VALID,0.281,
2011-10-08, 02:22:05,VALID,1009.273,VALID,0.0,VALID,104.0,VALID,0.0,VALID,24.355,VALID,177.0,VALID,0.318,
2011-10-08, 02:23:05,VALID,1009.261,VALID,0.0,VALID,104.0,VALID,0.0,VALID,24.357,VALID,177.0,VALID,0.384,
2011-10-08, 02:24:05,VALID,1009.249,VALID,0.0,VALID,104.0,VALID,0.112,VALID,24.296,VALID,177.0,VALID,0.387,
2011-10-08, 02:25:05,VALID,1009.229,VALID,0.0,VALID,104.0,VALID,0.112,VALID,24.277,VALID,177.0,VALID,0.398,
2011-10-08, 02:26:05,VALID,1009.201,VALID,0.0,VALID,104.0,VALID,0.0,VALID,24.257,VALID,177.0,VALID,0.318,
2011-10-08, 02:27:05,VALID,1009.18,VALID,0.0,VALID,104.0,VALID,0.112,VALID,24.257,VALID,177.0,VALID,0.129,
2011-10-08, 02:28:05,VALID,1009.169,VALID,0.0,VALID,104.0,VALID,0.112,VALID,24.238,VALID,177.0,VALID,0.053,
2011-10-08, 02:29:05,VALID,1009.19,VALID,0.0,VALID,104.0,VALID,0.112,VALID,24.24,VALID,177.0,VALID,0.007,
2011-10-08, 02:30:05,VALID,1009.191,VALID,0.0,VALID,104.0,VALID,0.0,VALID,24.179,VALID,177.0,VALID,0.0,
2011-10-08, 02:31:05,VALID,1009.175,VALID,0.0,VALID,104.0,VALID,0.112,VALID,24.179,VALID,177.0,VALID,0.0,
2011-10-08, 02:32:05,VALID,1009.188,VALID,0.0,VALID,104.0,VALID,0.112,VALID,24.181,VALID,177.0,VALID,0.0,
2011-10-08, 02:33:05,VALID,1009.217,VALID,0.0,VALID,104.0,VALID,0.112,VALID,24.14,VALID,177.0,VALID,0.0,
2011-10-08, 02:34:05,VALID,1009.207,VALID,0.0,VALID,104.0,VALID,0.112,VALID,24.082,VALID,177.0,VALID,0.0,
2011-10-08, 02:35:05,VALID,1009.228,VALID,0.0,VALID,104.0,VALID,0.112,VALID,24.103,VALID,177.0,VALID,0.0,
2011-10-08, 02:36:05,VALID,1009.211,VALID,0.0,VALID,104.0,VALID,0.112,VALID,24.082,VALID,177.0,VALID,0.0,
2011-10-08, 02:37:05,VALID,1009.272,VALID,0.0,VALID,104.0,VALID,0.112,VALID,24.103,VALID,177.0,VALID,0.0,
2011-10-08, 02:38:05,VALID,1009.278,VALID,0.0,VALID,104.0,VALID,0.112,VALID,24.082,VALID,177.0,VALID,0.0,
2011-10-08, 02:39:05,VALID,1009.322,VALID,0.0,VALID,104.0,VALID,0.112,VALID,24.082,VALID,177.0,VALID,0.0,
2011-10-08, 02:40:05,VALID,1009.355,VALID,0.0,VALID,104.0,VALID,0.112,VALID,24.101,VALID,177.0,VALID,0.0,
2011-10-08, 02:41:05,VALID,1009.381,VALID,0.0,VALID,104.0,VALID,0.0,VALID,24.082,VALID,177.0,VALID,0.0,
2011-10-08, 02:42:05,VALID,1009.407,VALID,0.0,VALID,104.0,VALID,0.112,VALID,24.062,VALID,177.0,VALID,0.0,
2011-10-08, 02:43:05,VALID,1009.414,VALID,0.0,VALID,104.0,VALID,0.112,VALID,24.043,VALID,177.0,VALID,0.0,
2011-10-08, 02:44:05,VALID,1009.44,VALID,0.0,VALID,104.0,VALID,0.0,VALID,24.043,VALID,177.0,VALID,0.0,
2011-10-08, 02:45:05,VALID,1009.43,VALID,0.0,VALID,104.0,VALID,0.0,VALID,24.043,VALID,177.0,VALID,0.0,
2011-10-08, 02:46:05,VALID,1009.416,VALID,0.0,VALID,104.0,VALID,0.112,VALID,24.064,VALID,177.0,VALID,0.0,
2011-10-08, 02:47:05,VALID,1009.415,VALID,0.0,VALID,104.0,VALID,0.0,VALID,24.064,VALID,177.0,VALID,0.154,
2011-10-08, 02:48:05,VALID,1009.428,VALID,0.0,VALID,104.0,VALID,0.0,VALID,24.045,VALID,177.0,VALID,0.22,
2011-10-08, 02:49:05,VALID,1009.443,VALID,0.0,VALID,104.0,VALID,0.0,VALID,24.023,VALID,177.0,VALID,0.251,
2011-10-08, 02:50:05,VALID,1009.437,VALID,0.0,VALID,104.0,VALID,0.112,VALID,24.023,VALID,177.0,VALID,0.396,
2011-10-08, 02:51:05,VALID,1009.494,VALID,0.0,VALID,104.0,VALID,0.0,VALID,24.025,VALID,177.0,VALID,0.289,
2011-10-08, 02:52:05,VALID,1009.517,VALID,0.0,VALID,104.0,VALID,0.0,VALID,23.969,VALID,177.0,VALID,0.394,
2011-10-08, 02:53:05,VALID,1009.539,VALID,0.0,VALID,104.0,VALID,0.0,VALID,23.908,VALID,177.0,VALID,0.424,
2011-10-08, 02:54:05,VALID,1009.545,VALID,0.0,VALID,104.0,VALID,0.0,VALID,23.91,VALID,177.0,VALID,0.275,
2011-10-08, 02:55:05,VALID,1009.588,VALID,0.0,VALID,104.0,VALID,0.0,VALID,23.83,VALID,177.0,VALID,0.346,
2011-10-08, 02:56:05,VALID,1009.603,VALID,0.0,VALID,104.0,VALID,0.0,VALID,23.811,VALID,177.0,VALID,0.359,
2011-10-08, 02:57:05,VALID,1009.641,VALID,0.0,VALID,104.0,VALID,0.0,VALID,23.832,VALID,177.0,VALID,0.27,
2011-10-08, 02:58:05,VALID,1009.649,VALID,0.0,VALID,104.0,VALID,0.0,VALID,23.832,VALID,177.0,VALID,0.255,
2011-10-08, 02:59:05,VALID,1009.687,VALID,0.0,VALID,104.0,VALID,0.0,VALID,23.813,VALID,177.0,VALID,0.166,
2011-10-08, 03:00:05,VALID,1009.718,VALID,0.0,VALID,104.0,VALID,0.0,VALID,23.832,VALID,177.0,VALID,0.2,
2011-10-08, 03:01:05,VALID,1009.719,VALID,0.0,VALID,104.0,VALID,0.0,VALID,23.852,VALID,177.0,VALID,0.299,
2011-10-08, 03:02:05,VALID,1009.729,VALID,0.0,VALID,104.0,VALID,0.0,VALID,23.85,VALID,177.0,VALID,0.168,
2011-10-08, 03:03:05,VALID,1009.749,VALID,0.0,VALID,104.0,VALID,0.0,VALID,23.852,VALID,177.0,VALID,0.262,
2011-10-08, 03:04:05,VALID,1009.745,VALID,0.0,VALID,104.0,VALID,0.0,VALID,23.852,VALID,76.0,VALID,0.267,
2011-10-08, 03:05:05,VALID,1009.747,VALID,0.0,VALID,104.0,VALID,0.0,VALID,23.83,VALID,73.0,VALID,0.471,
2011-10-08, 03:06:05,VALID,1009.746,VALID,0.0,VALID,104.0,VALID,0.0,VALID,23.83,VALID,73.0,VALID,0.027,
2011-10-08, 03:07:05,VALID,1009.779,VALID,0.0,VALID,104.0,VALID,0.0,VALID,23.83,VALID,73.0,VALID,0.222,
2011-10-08, 03:08:05,VALID,1009.802,VALID,0.0,VALID,104.0,VALID,0.0,VALID,23.85,VALID,73.0,VALID,0.233,
2011-10-08, 03:09:05,VALID,1009.811,VALID,0.0,VALID,104.0,VALID,0.0,VALID,23.869,VALID,73.0,VALID,0.0,
2011-10-08, 03:10:05,VALID,1009.85,VALID,0.0,VALID,104.0,VALID,0.0,VALID,23.869,VALID,72.0,VALID,0.024,
2011-10-08, 03:11:05,VALID,1009.883,VALID,0.0,VALID,104.0,VALID,0.0,VALID,23.869,VALID,73.0,VALID,0.0,
2011-10-08, 03:12:05,VALID,1009.866,VALID,0.0,VALID,104.0,VALID,0.0,VALID,23.869,VALID,72.0,VALID,0.0,
2011-10-08, 03:13:05,VALID,1009.899,VALID,0.0,VALID,104.0,VALID,0.0,VALID,23.869,VALID,73.0,VALID,0.0,
2011-10-08, 03:14:05,VALID,1009.901,VALID,0.0,VALID,104.0,VALID,0.0,VALID,23.889,VALID,73.0,VALID,0.0,
2011-10-08, 03:15:05,VALID,1009.924,VALID,0.0,VALID,104.0,VALID,0.0,VALID,23.908,VALID,73.0,VALID,0.0,
2011-10-08, 03:16:05,VALID,1009.938,VALID,0.0,VALID,104.0,VALID,0.0,VALID,23.928,VALID,72.0,VALID,0.042,
2011-10-08, 03:17:05,VALID,1009.912,VALID,0.0,VALID,104.0,VALID,0.0,VALID,23.947,VALID,73.0,VALID,0.413,
2011-10-08, 03:18:05,VALID,1009.899,VALID,0.0,VALID,104.0,VALID,0.0,VALID,23.947,VALID,73.0,VALID,0.126,
2011-10-08, 03:19:05,VALID,1009.858,VALID,0.0,VALID,104.0,VALID,0.0,VALID,23.967,VALID,73.0,VALID,0.0,
2011-10-08, 03:20:05,VALID,1009.865,VALID,0.0,VALID,104.0,VALID,0.0,VALID,23.967,VALID,73.0,VALID,0.0,
2011-10-08, 03:21:05,VALID,1009.849,VALID,0.0,VALID,104.0,VALID,0.0,VALID,23.986,VALID,73.0,VALID,0.0,
2011-10-08, 03:22:05,VALID,1009.84,VALID,0.0,VALID,104.0,VALID,0.0,VALID,24.006,VALID,72.0,VALID,0.0,
2011-10-08, 03:23:05,VALID,1009.851,VALID,0.0,VALID,104.0,VALID,0.0,VALID,23.984,VALID,73.0,VALID,0.116,
2011-10-08, 03:24:05,VALID,1009.837,VALID,0.0,VALID,104.0,VALID,0.0,VALID,24.006,VALID,72.0,VALID,0.143,
2011-10-08, 03:25:05,VALID,1009.843,VALID,0.0,VALID,104.0,VALID,0.0,VALID,24.025,VALID,73.0,VALID,0.126,
2011-10-08, 03:26:05,VALID,1009.866,VALID,0.0,VALID,104.0,VALID,0.0,VALID,24.045,VALID,73.0,VALID,0.0,
2011-10-08, 03:27:05,VALID,1009.859,VALID,0.0,VALID,104.0,VALID,0.0,VALID,24.064,VALID,72.0,VALID,0.001,
2011-10-08, 03:28:05,VALID,1009.886,VALID,0.0,VALID,104.0,VALID,0.0,VALID,24.084,VALID,73.0,VALID,0.0,
2011-10-08, 03:29:05,VALID,1009.872,VALID,0.0,VALID,104.0,VALID,0.0,VALID,24.103,VALID,73.0,VALID,0.0,
2011-10-08, 03:30:05,VALID,1009.864,VALID,0.0,VALID,104.0,VALID,0.0,VALID,24.103,VALID,73.0,VALID,0.146,
2011-10-08, 03:31:05,VALID,1009.894,VALID,0.0,VALID,104.0,VALID,0.0,VALID,24.103,VALID,73.0,VALID,0.0,
2011-10-08, 03:32:05,VALID,1009.871,VALID,0.0,VALID,104.0,VALID,0.0,VALID,24.103,VALID,73.0,VALID,0.0,
2011-10-08, 03:33:05,VALID,1009.878,VALID,0.0,VALID,104.0,VALID,0.0,VALID,24.084,VALID,73.0,VALID,0.0,
2011-10-08, 03:34:05,VALID,1009.887,VALID,0.0,VALID,104.0,VALID,0.0,VALID,24.123,VALID,73.0,VALID,0.0,
2011-10-08, 03:35:05,VALID,1009.869,VALID,0.0,VALID,104.0,VALID,0.0,VALID,24.142,VALID,73.0,VALID,0.0,
2011-10-08, 03:36:05,VALID,1009.871,VALID,0.0,VALID,104.0,VALID,0.0,VALID,24.123,VALID,73.0,VALID,0.0,
2011-10-08, 03:37:05,VALID,1009.88,VALID,0.0,VALID,104.0,VALID,0.0,VALID,24.142,VALID,73.0,VALID,0.0,
2011-10-08, 03:38:05,VALID,1009.894,VALID,0.0,VALID,104.0,VALID,0.0,VALID,24.162,VALID,72.0,VALID,0.0,
2011-10-08, 03:39:05,VALID,1009.892,VALID,0.0,VALID,104.0,VALID,0.0,VALID,24.181,VALID,73.0,VALID,0.0,
2011-10-08, 03:40:05,VALID,1009.888,VALID,0.0,VALID,104.0,VALID,0.0,VALID,24.181,VALID,73.0,VALID,0.0,
2011-10-08, 03:41:05,VALID,1009.87,VALID,0.0,VALID,104.0,VALID,0.0,VALID,24.181,VALID,73.0,VALID,0.0,
2011-10-08, 03:42:05,VALID,1009.9,VALID,0.0,VALID,104.0,VALID,0.0,VALID,24.181,VALID,73.0,VALID,0.0,
2011-10-08, 03:43:05,VALID,1009.88,VALID,0.0,VALID,104.0,VALID,0.0,VALID,24.162,VALID,72.0,VALID,0.179,
2011-10-08, 03:44:05,VALID,1009.865,VALID,0.0,VALID,104.0,VALID,0.0,VALID,24.162,VALID,72.0,VALID,0.243,